Tracking 17152 objects as of 3-May-2015
HD Live streaming from Space Station

COSMOS 2251 DEB

Track COSMOS 2251 DEB now!
10-day predictions
COSMOS 2251 DEB is classified as:


NORAD ID: 35970
Int'l Code: 1993-036AVL
Perigee: 686.9 km
Apogee: 746.6 km
Inclination: 74.0 °
Period: 99.0 minutes
Semi major axis: 7087 km
RCS: 0.0106 m2 (small)
Launch date: June 16, 1993
Source: Commonwealth of Independent States (former USSR) (CIS)

Note: This is SATELLITE DEBRIS
Your satellite tracking list
Your tracking list is empty





NASA's NSSDC Master Catalog

Two Line Element Set (TLE):
1 35970U 93036AVL 15117.27213473  .00004324  00000-0  99987-3 0  9997
2 35970 074.0410 103.9610 0042050 117.3262 243.2192 14.54923720299678

Source of the keplerian elements: AFSPC

N2YO: 5008